Starlink 34216

operational
NORAD ID: 64337 Int'l Des: 2025-124 Owner: SPXS Country: US Constellation: starlink
LEOCIRCULAR

Über Starlink 34216

Beschreibung wird geladen...

Live-Position

3D-Globus wird geladen...

Nächste Überflüge

Höhenverlauf

Altitude vs Time

uPlot chart will show altitude changes over time

Zweizeiliger Elementsatz

1 64337U 25124W 25260.47544980 .00029630 00000-0 10813-2 0 9998
2 64337 42.9943 19.5691 0001012 127.9789 232.1155 15.27597829 15295
Epoch: 17. Sept. 2025 • Age: 37 hours

Aktueller Status

Höhe 496.4 km
Geschwindigkeit 7.62 km/s
Subsatellitenpunkt -42.64°S, 77.25°W
Startdatum 10. Juni 2025
Alter 0.2 years
Typ internet

Technische Details

Klassifizierung Payload
Masse 575.00 kg
Trockenmasse 530.00 kg
Gesamtmasse 575.00 kg
Länge 0.30 m
Durchmesser 4.10 m
Spannweite 29.00 m
Form Box + pan
Hersteller SPXS
Bus-Typ Starlink V2MO
Phasenstatus In Orbit
Besitzer/Staat SPXS/US

Große Konstellationen

Loading constellations...